OISA  Abadeh  Airport

Abadeh, Iran

Add Bookmark
ICAO OISA
Type Airport
Status Operational
Latitude
31° 10' 0" N
31.166668
Longitude
52° 40' 0" E
52.666668
Local (DST + 5) UTC (GMT + 4)
Feb 14, 2016 03:01 Feb 13, 2016 23:31
Sunrise-Sunset Local UTC
Begin Civil Twilight 06:15 02:45
Sunrise 06:40 03:10
Sunset 05:46 14:16
End Civil Twilight 06:11 14:41
VFR
VFR
MVFR
MVFR
IFR
IFR
LIFR
LIFR
Unknown
Unavailable

Current Weather

METAR Observed VFR
OISA 132255Z 00000KT CAVOK M02/M13 Q1022 Sat, Feb 13, 2016 @ 22:55 UTC
(36 Minutes ago)
Visual Flight Rules
Wind Visibility Conditions
Calm 10 km or more
  • No significant weather
Temperatures Readings Precipitation
Current Temp
-2°C
28°F
Dewpoint
-13°C
9°F
Humidity 43%
Altimeter 30.18" Hg
Sea Level Pressure 1,022 mb
Field Elevation
2,004 m
6,575 ft
None Recorded
-
-

CheckWX.com is intended as a tool to help pilots better visualize weather data. It is not intended as a substitute for an official weather briefing obtained from a Flight Service Station. CheckWX.com does not meet the FAA requirements for an official pre-flight weather briefing. Therefore, it's important that pilots still call and obtain an official FSS pre-flight weather briefing.

© 2007-2016 CheckWX.com
23:31:35 UTC